This is the latest recevied weather packets stored in our database for station/object KC3ELT-10. If no packets are shown the sender has not sent any weather packets the latest 10 day(s).
| Time | Temp. | Humidity | Pressure | Rain* | Wind** | Luminosity | Snow |
|---|---|---|---|---|---|---|---|
| 1777853579 | 11.67° C | 40% | 1006.7 hPa | 0 mm | 1.34 m/s, 326° | - | - |
| 1777853279 | 12.22° C | 40% | 1006.7 hPa | 0 mm | 1.34 m/s, 309° | - | - |
| 1777852979 | 12.22° C | 39% | 1006.7 hPa | 0 mm | 1.34 m/s, 336° | - | - |
| 1777852679 | 12.22° C | 39% | 1006.4 hPa | 0 mm | 1.34 m/s, 283° | - | - |
| 1777852379 | 12.22° C | 39% | 1006.4 hPa | 0 mm | 0.89 m/s, 307° | - | - |
| 1777852079 | 12.22° C | 38% | 1006.4 hPa | 0 mm | 2.68 m/s, 311° | - | - |
| 1777851779 | 12.78° C | 37% | 1006.3 hPa | 0 mm | 0.89 m/s, 276° | - | - |
| 1777851479 | 12.78° C | 37% | 1006.3 hPa | 0 mm | 2.24 m/s, 282° | - | - |
| 1777851179 | 12.78° C | 37% | 1006.3 hPa | 0 mm | 1.79 m/s, 331° | - | - |
| 1777850879 | 12.78° C | 37% | 1006.3 hPa | 0 mm | 0.89 m/s, 297° | - | - |
| 1777850579 | 13.33° C | 37% | 1006.3 hPa | 0 mm | 4.47 m/s, 264° | - | - |
| 1777850279 | 13.33° C | 37% | 1006.3 hPa | 0 mm | 5.36 m/s, 281° | - | - |
| 1777849979 | 13.33° C | 36% | 1006.3 hPa | 0 mm | 1.79 m/s, 272° | - | - |
| 1777849679 | 13.33° C | 37% | 1006.3 hPa | 0 mm | 2.68 m/s, 300° | - | - |
| 1777849379 | 13.33° C | 37% | 1006.3 hPa | 0 mm | 0.45 m/s, 333° | - | - |
| 1777849079 | 13.33° C | 36% | 1006.2 hPa | 0 mm | 0.89 m/s, 250° | - | - |
| 1777848779 | 13.33° C | 36% | 1006.2 hPa | 0 mm | 0.89 m/s, 249° | - | - |
| 1777848479 | 13.33° C | 36% | 1006.2 hPa | 0 mm | 1.79 m/s, 276° | - | - |
| 1777848179 | 13.33° C | 36% | 1006 hPa | 0 mm | 2.68 m/s, 269° | - | - |
| 1777847879 | 13.33° C | 35% | 1006 hPa | 0 mm | 4.47 m/s, 300° | - | - |
| 1777847579 | 13.89° C | 33% | 1006 hPa | 0 mm | 1.34 m/s, 290° | - | - |
| 1777847279 | 13.89° C | 34% | 1006.1 hPa | 0 mm | 1.79 m/s, 271° | - | - |
| 1777846979 | 13.33° C | 34% | 1006.1 hPa | 0 mm | 3.58 m/s, 288° | - | - |
| 1777846679 | 13.33° C | 35% | 1006.1 hPa | 0 mm | 5.36 m/s, 286° | - | - |
| 1777846379 | 13.33° C | 35% | 1006 hPa | 0 mm | 1.34 m/s, 296° | - | - |
* Rain latest hour (hover to see other rain measurements)
** Current wind speed in m/s (hover to see current wind gust speed)